Location: Carabito
(9.8355°N, 67.9249°W)
Time: 13:00:35
(UTC+00:00)

ARIANE 5 R/B - Pass Details

Date: 23 May 2024
Orbit: 501 x 17441 km, 6.8° (Epoch: 25 June)

Event Time Altitude Azimuth Distance (km) Brightness Sun altitude
Rises 07:24:35 0° 274° (W) 18,241 8.6 -37.0°
Reaches altitude 10° 07:55:26 10° 271° (W) 12,307 7.6 -30.7°
Enters shadow 07:59:05 12° 270° (W) 11,400 7.5 -29.9°
Exits shadow 08:18:14 29° 260° (W) 5,732 5.8 -25.8°
Maximum altitude 08:29:01 53° 200° (SSW) 2,325 4.1 -23.5°
Drops below altitude 10° 08:35:24 10° 122° (ESE) 2,784 5.3 -22.1°
Sets 08:37:03 0° 116° (ESE) 3,360 5.9 -21.7°
